Location: Poprad
(49.0500°N, 20.3000°E)
Time: 12:37:23
(UTC+02:00)

ISS - Pass Details

Date: 27 March 2019
Orbit: 408 x 410 km, 51.6° (Epoch: 24 April)

Event Time Altitude Azimuth Distance (km) Brightness Sun altitude
Rises 20:09:58 0° 275° (W) 2,335 1.1 -20.7°
Reaches altitude 10° 20:12:05 10° 280° (W) 1,474 0.0 -21.0°
Enters shadow 20:15:16 51° 354° (N) 520 -3.2 -21.4°
